Theta_e
317 318 317 314 314 315 315 314 314 313 312 309 310 307 304 298 298 298 298 298 297 297 296 296 296 296 298 297 297 296 295 296 296 297 297 299 304 305 312 315 318 321 323 322 323 322 321 319 319 320 320 320 319 319 320 320 321 323 321 320 320 319 319 318 318 318 318 319 319 320 320 320 320 321 321 322 322 323 324 324 325 326 326 326 326
316 316 316 313 313 314 314 314 314 312 310 309 306 303 300 296 297 298 298 297 297 297 296 295 295 295 296 296 296 296 295 296 295 296 297 299 303 302 309 313 317 321 321 321 322 322 321 319 319 320 319 319 319 318 319 320 320 321 320 319 318 318 317 317 316 317 317 317 318 319 319 319 319 320 320 321 321 321 321 322 322 323 323 324 324
316 315 314 312 313 314 313 313 312 310 310 306 304 301 297 297 298 296 297 296 295 295 295 296 295 296 296 296 295 295 295 295 296 297 297 298 301 303 303 309 314 317 321 320 321 321 320 320 319 319 320 320 319 318 318 318 319 319 321 318 317 317 316 315 315 316 316 316 317 317 318 318 318 319 319 319 319 319 321 320 321 321 321 322 322
315 315 314 312 312 313 312 311 310 307 307 303 301 299 297 297 297 297 296 296 295 294 295 294 294 295 295 295 294 295 294 294 295 297 297 299 300 304 302 304 309 312 315 320 321 320 319 319 319 319 319 319 318 318 317 317 317 317 317 316 316 316 315 315 315 315 316 316 316 316 317 317 317 317 317 318 318 318 319 319 319 319 320 320 320
314 314 312 312 311 311 310 309 308 305 304 301 299 298 297 297 298 297 296 295 294 294 296 294 294 294 295 294 294 294 294 294 294 296 297 298 298 300 304 302 301 305 309 313 317 319 319 320 320 319 318 318 318 317 317 317 316 316 316 316 316 316 315 314 314 315 315 316 316 315 315 316 316 316 316 316 316 317 317 317 317 318 318 319 319
314 313 311 311 310 310 309 307 306 303 302 300 298 296 296 297 296 295 298 295 294 293 292 293 293 292 293 293 293 293 293 293 294 295 296 296 297 299 302 303 301 301 301 306 310 315 318 319 318 318 318 316 316 316 317 316 316 315 315 315 315 315 314 314 314 314 314 314 314 314 314 314 314 315 315 315 315 315 316 316 316 316 317 317 317
313 312 310 309 309 308 308 306 305 302 300 298 297 297 296 296 295 294 293 293 293 293 292 293 292 293 293 292 292 293 292 293 294 295 295 294 296 297 299 302 301 302 301 298 301 307 313 316 317 318 318 317 315 316 316 316 316 315 315 315 315 314 314 314 314 314 314 313 313 313 313 313 313 314 313 314 314 313 313 314 314 315 315 316 316
311 311 309 308 308 307 307 305 304 301 299 298 297 295 295 296 294 293 292 291 293 291 292 292 292 292 292 292 292 293 292 292 294 294 294 294 295 296 296 296 300 300 301 297 297 301 308 311 313 315 315 315 315 315 315 316 315 315 314 315 314 315 314 314 314 314 312 312 312 312 312 312 312 312 312 312 313 313 313 313 313 314 314 315 315
311 310 309 307 305 306 305 305 303 300 298 297 295 295 295 295 293 293 292 290 291 290 290 293 292 292 291 291 292 292 291 293 293 293 296 293 293 294 294 293 293 299 294 295 296 295 302 306 308 309 310 312 313 314 314 314 315 315 314 314 314 314 313 313 313 312 311 311 311 311 311 311 311 311 311 311 311 311 312 312 313 313 313 314 314
311 308 307 306 304 304 304 304 302 299 298 296 295 294 294 294 292 292 292 292 291 291 291 292 294 293 291 292 291 291 291 292 293 295 293 293 293 293 292 291 291 292 292 294 294 293 294 300 304 304 304 308 311 314 315 315 318 316 315 314 314 314 313 312 312 310 310 310 309 309 310 310 310 310 310 310 310 310 311 311 311 312 312 313 313
309 306 305 304 302 301 302 301 300 298 297 295 294 293 294 293 292 292 293 293 292 291 291 292 293 293 292 291 291 291 291 292 292 292 292 292 293 294 294 292 291 292 291 291 291 291 290 292 292 292 294 303 307 310 312 314 315 318 314 314 314 314 313 312 311 310 310 309 309 308 309 309 309 309 309 309 309 310 310 311 311 311 311 312 312
307 305 304 302 301 300 299 300 299 298 296 295 294 292 293 293 291 292 292 291 292 292 292 292 291 290 290 290 291 291 292 291 291 290 291 293 293 293 292 291 292 291 291 291 291 290 290 289 291 291 292 298 302 305 308 309 309 313 317 315 314 314 312 310 310 310 309 309 308 308 308 308 309 309 308 309 309 310 310 310 310 310 311 311 311
308 306 305 304 301 299 298 298 298 297 296 295 294 293 293 293 292 292 291 291 290 291 292 291 289 287 288 289 290 290 290 290 289 290 290 291 292 291 291 290 290 290 290 290 290 290 290 291 290 290 290 290 294 300 302 304 305 310 315 316 314 313 311 311 310 308 308 307 308 308 308 308 308 309 309 309 309 309 310 310 310 310 310 310 310
307 306 305 304 301 298 298 298 296 296 296 295 293 293 293 292 292 290 291 291 290 291 292 291 287 286 285 287 287 288 289 288 288 288 290 290 291 291 290 290 290 290 290 289 289 290 290 289 289 289 289 290 291 292 295 295 297 306 311 315 315 314 313 311 310 309 307 307 307 307 307 308 308 308 308 308 309 309 309 309 309 309 310 310 310
304 304 304 303 302 299 298 298 297 296 295 294 293 293 293 292 292 292 290 289 289 292 291 291 286 286 286 286 283 285 287 286 287 288 290 290 290 290 290 289 290 290 290 289 289 289 289 289 289 289 289 289 291 293 291 293 294 301 305 309 314 314 313 312 310 309 307 307 307 307 307 307 307 307 307 308 308 308 308 308 308 309 309 309 310
302 302 303 302 301 300 298 296 296 295 295 294 293 293 292 292 292 291 291 289 289 291 291 290 288 289 284 284 283 284 283 284 285 286 287 288 289 289 289 290 290 289 289 289 289 289 289 288 289 289 289 289 290 291 292 291 295 297 298 299 304 312 313 311 310 309 308 307 307 307 306 306 306 306 307 307 307 307 307 308 308 308 308 308 308
302 301 301 301 300 300 298 297 296 295 295 294 293 293 293 293 293 291 290 290 288 289 291 291 289 291 288 284 284 284 283 285 284 285 286 286 287 288 289 289 289 290 288 288 288 288 288 288 289 289 288 289 288 289 292 291 291 294 293 295 300 303 308 311 309 308 308 308 307 306 306 305 305 305 306 306 306 306 307 307 307 307 307 307 306
301 301 300 299 299 299 298 297 295 295 295 294 293 292 293 292 292 292 291 290 290 289 289 291 290 290 290 288 287 284 283 286 284 282 285 286 287 288 288 288 289 289 289 288 288 288 288 289 288 288 288 288 288 289 290 291 292 291 290 294 299 301 304 307 308 307 307 307 307 306 305 305 305 305 305 305 305 306 306 306 306 306 306 306 306
300 299 299 299 299 299 298 297 296 294 294 293 292 292 293 293 292 292 292 291 288 288 288 289 289 289 290 291 291 289 289 285 283 281 280 283 285 286 286 288 288 288 289 288 288 287 288 288 288 288 288 288 288 288 290 291 294 293 297 298 301 301 302 302 304 305 306 307 306 305 305 305 304 304 304 304 304 304 305 306 305 305 305 306 306
299 298 298 298 298 298 298 297 296 295 293 293 293 292 293 294 293 292 292 291 290 289 288 288 288 288 290 289 290 290 290 289 288 286 282 281 282 284 285 287 287 288 288 288 288 287 287 287 287 287 287 288 287 287 290 290 291 293 294 299 300 301 300 300 299 300 301 303 305 305 305 305 304 303 303 303 303 304 304 304 304 304 305 305 306
298 298 297 297 296 297 296 296 296 295 294 294 292 293 292 292 292 292 291 291 290 290 289 288 289 288 287 287 288 289 289 287 288 289 282 282 282 282 282 285 286 287 287 287 288 288 287 287 287 288 288 288 288 287 288 289 291 291 295 299 301 301 300 300 298 298 297 298 301 303 304 304 304 303 303 303 303 303 304 304 304 304 304 304 305
296 297 296 297 296 295 295 295 295 295 294 293 292 292 292 291 292 292 292 291 291 290 290 289 289 289 288 288 288 287 287 287 286 286 286 285 284 281 283 283 282 285 287 287 287 288 287 287 287 287 287 287 287 287 287 289 290 291 294 298 299 300 299 298 297 297 297 297 297 298 301 302 303 303 303 303 303 303 303 303 303 303 303 303 304
295 295 296 296 295 295 294 295 295 294 294 293 293 292 292 292 292 291 291 291 291 290 290 290 289 289 288 287 288 289 289 288 287 286 287 286 284 283 283 284 285 283 285 288 287 288 288 287 287 287 287 287 287 287 287 288 291 293 295 297 298 298 297 297 297 296 296 297 297 297 298 298 299 300 302 302 303 303 303 303 303 303 303 303 303
294 294 294 295 294 295 294 294 294 293 294 294 293 293 292 291 291 291 291 291 291 290 290 289 289 288 289 289 288 289 290 289 290 290 288 287 288 285 283 283 283 284 284 286 287 287 287 287 287 287 287 287 287 287 287 288 290 294 293 295 296 295 296 298 297 296 296 297 297 297 297 297 297 297 298 300 301 303 303 303 303 302 303 303 303
293 293 292 293 294 294 294 293 293 294 293 293 293 292 292 291 291 290 290 290 290 290 290 289 289 289 289 289 289 288 289 290 289 288 288 288 287 283 284 284 283 283 284 284 283 286 287 287 286 286 287 286 287 287 287 287 288 293 293 292 295 294 294 296 295 295 296 296 296 296 296 296 296 297 298 299 300 302 302 302 302 302 303 303 302
294 293 294 293 293 294 294 294 293 293 292 293 292 292 292 291 291 290 290 290 290 290 290 289 289 289 289 287 287 289 288 289 289 288 287 286 284 285 285 285 282 283 282 283 282 284 283 286 286 286 286 286 287 287 287 287 287 293 292 290 292 293 294 295 294 294 295 295 295 294 294 294 296 296 297 299 300 301 301 301 302 302 302 302 302
293 294 294 294 293 293 293 293 293 293 292 292 293 292 291 291 290 290 290 289 289 289 289 288 289 288 287 288 288 288 289 288 289 289 289 288 288 286 285 285 282 282 282 281 281 283 284 285 286 286 286 286 286 287 287 286 288 292 290 288 288 292 293 293 293 294 294 295 295 294 294 293 294 295 296 296 298 299 300 301 301 301 301 301 301
294 294 294 294 294 293 292 292 292 292 291 291 291 290 289 289 289 288 288 290 288 287 287 287 288 288 288 288 287 287 288 287 288 289 290 289 288 287 286 287 286 282 279 280 280 282 283 283 283 286 286 286 286 286 288 288 287 292 289 286 285 288 291 292 294 294 294 294 295 294 293 293 293 293 295 295 295 295 296 296 297 298 297 297 297
293 294 293 293 293 293 292 292 291 291 291 290 290 288 287 288 288 287 287 287 287 287 287 286 287 287 287 287 288 288 287 287 287 287 288 288 288 288 288 288 287 286 281 279 280 280 282 284 282 284 286 286 286 286 286 286 288 289 287 285 284 284 289 292 293 293 294 294 295 294 293 293 293 293 294 294 295 295 295 295 296 296 296 296 297
292 292 292 291 291 291 291 290 289 287 288 288 287 288 287 288 287 287 287 287 287 287 286 286 287 286 286 287 287 287 287 286 286 286 286 287 286 287 288 288 288 287 284 282 282 281 281 283 284 282 284 285 286 286 286 286 289 289 286 285 284 283 289 291 292 293 293 295 294 294 294 293 293 293 293 294 294 295 295 295 295 296 296 296 297
289 289 289 289 289 288 288 288 288 288 287 288 288 288 287 288 287 287 286 286 286 286 286 286 287 286 286 286 287 287 287 286 286 285 285 285 286 286 286 287 286 288 286 283 283 281 284 282 283 283 284 284 285 285 286 285 288 288 285 284 284 286 289 290 291 292 293 293 293 294 294 294 293 293 293 293 294 294 295 295 295 295 295 296 296
286 286 285 286 287 287 288 288 288 287 287 287 287 287 288 288 287 287 287 286 286 286 286 286 287 286 286 286 286 286 286 285 286 286 285 285 285 285 285 285 285 285 285 284 284 284 283 284 284 283 284 284 284 284 284 284 287 288 284 283 284 287 287 286 290 291 292 292 293 293 293 294 293 293 293 293 294 294 294 294 295 295 295 294 295
287 287 286 286 285 286 286 286 287 287 288 288 287 287 287 287 287 287 286 286 286 286 286 286 286 286 286 286 286 286 286 285 286 286 286 286 284 284 284 284 284 284 284 283 283 283 280 279 283 282 283 283 282 284 283 283 284 285 285 283 283 284 284 283 285 289 291 291 292 292 293 293 293 293 293 293 293 293 294 294 294 294 294 294 294
286 286 286 287 287 287 286 285 285 286 287 287 288 288 287 286 286 287 287 286 286 286 285 285 286 286 286 285 286 286 285 285 286 285 286 285 285 284 284 284 285 285 284 284 283 283 282 280 280 280 281 283 282 283 283 282 282 283 282 282 283 283 281 281 281 284 289 290 291 291 292 292 293 293 293 292 293 293 294 294 293 293 293 293 293
284 285 285 285 285 286 286 286 286 286 285 286 287 287 287 287 287 287 286 286 286 286 285 285 285 285 285 285 285 285 286 285 285 285 285 285 285 284 285 285 285 285 284 284 285 283 282 279 280 280 281 282 282 282 283 283 283 283 282 281 282 281 281 280 280 281 287 289 290 291 291 292 292 293 293 293 293 293 293 294 293 293 292 292 292
284 284 284 285 285 285 285 285 285 285 286 286 285 285 286 287 287 287 287 286 286 286 286 286 285 285 285 285 285 285 284 285 285 285 285 285 284 284 284 284 284 285 284 283 284 285 283 280 279 280 281 281 281 281 283 282 281 281 281 281 280 280 280 280 279 280 285 289 290 290 291 291 292 292 292 292 293 293 293 293 293 292 292 291 291
282 283 283 283 284 284 284 284 285 285 285 285 285 285 286 286 286 286 286 287 287 286 286 286 286 285 285 285 285 284 284 284 284 284 284 284 284 284 284 284 284 284 284 284 284 284 283 281 280 280 280 281 282 281 282 280 279 279 279 279 280 279 279 279 280 281 285 289 289 289 290 290 291 291 292 292 293 293 293 293 292 292 291 291 291
281 281 282 282 283 283 283 284 284 285 285 285 285 285 285 285 286 286 286 286 286 286 286 286 286 286 286 286 285 285 284 284 284 284 284 284 284 284 284 284 284 284 283 283 284 284 284 283 279 279 279 279 279 279 281 281 279 278 278 278 278 278 278 278 279 281 282 283 284 286 288 289 290 291 291 292 292 293 292 292 292 291 291 290 290
281 281 281 281 282 282 282 283 283 284 284 285 285 285 285 285 285 285 285 285 286 286 286 286 286 286 286 286 286 285 284 284 284 284 284 283 284 284 284 283 283 283 283 283 283 283 283 283 280 280 279 280 280 279 280 281 280 279 278 277 277 278 279 279 278 279 281 281 284 287 286 286 287 288 289 291 291 292 292 292 291 291 290 290 290
282 281 281 281 281 281 281 282 282 283 283 284 284 284 285 285 285 284 284 284 285 285 285 285 285 285 286 286 285 285 285 285 285 284 284 284 284 283 284 283 283 282 282 283 283 283 283 283 282 278 279 279 278 277 279 279 278 277 278 278 277 277 278 279 279 279 279 280 279 282 285 286 286 287 288 289 290 291 291 290 290 290 289 289 289
282 282 282 281 281 281 281 281 281 282 283 283 284 284 284 284 284 284 284 284 284 284 284 285 285 285 285 285 285 285 285 286 287 287 287 286 284 283 283 283 282 282 282 283 283 282 282 282 282 280 277 278 278 277 277 277 277 278 278 279 278 279 279 278 278 279 280 279 279 279 280 281 281 281 282 282 284 287 288 289 288 289 289 289 289
281 282 281 281 281 281 281 281 281 282 282 283 285 287 288 286 284 284 284 284 284 284 284 284 284 284 284 284 285 286 286 286 286 287 288 288 288 286 285 284 283 283 282 282 282 282 282 281 281 281 277 277 278 278 278 278 279 279 278 278 277 278 277 277 278 278 280 279 278 277 278 281 280 279 280 280 282 284 284 285 285 286 287 288 288
281 281 281 281 281 281 281 281 281 282 282 283 286 288 289 290 288 285 284 284 284 284 283 283 283 284 284 284 284 285 285 286 286 287 288 288 288 289 289 288 286 284 283 282 282 283 282 282 282 282 280 279 279 278 278 279 279 279 278 278 278 278 276 275 274 277 280 279 278 277 277 279 280 278 279 279 280 281 282 282 286 287 287 287 287
281 281 280 280 281 281 281 281 281 281 282 284 287 288 288 289 289 286 284 284 284 283 283 283 283 283 283 284 284 285 285 284 284 284 286 287 288 288 289 289 289 288 288 285 283 282 282 282 282 282 282 281 280 279 278 278 278 278 279 279 278 278 277 276 277 276 279 281 278 277 276 279 280 278 278 279 280 280 281 283 286 287 287 287 286
281 280 280 280 280 280 280 280 280 281 281 285 286 287 288 288 289 288 285 284 284 283 283 283 283 283 283 283 283 284 285 285 285 284 284 284 286 287 288 288 288 289 289 289 288 285 284 283 282 282 282 282 281 279 279 278 279 278 278 278 278 279 279 278 278 279 278 281 279 277 276 278 279 278 277 279 280 280 282 285 286 286 286 287 287
280 280 280 280 280 280 280 280 280 280 281 284 286 287 288 288 288 288 284 284 283 283 283 283 283 283 283 283 283 283 284 284 284 284 283 283 283 283 284 285 285 286 288 289 288 288 286 284 283 282 283 284 282 282 281 281 278 277 278 277 279 278 279 279 280 281 280 281 278 278 276 277 279 278 277 279 280 280 280 283 286 286 287 287 287
277 277 277 277 278 279 279 280 280 280 281 284 285 286 287 287 288 288 284 283 283 282 283 283 283 283 283 284 283 283 283 283 284 284 283 282 282 282 282 282 283 284 285 285 286 286 286 285 284 284 284 284 284 283 281 281 280 280 280 280 280 280 281 281 279 278 278 280 279 278 275 277 279 277 278 278 279 279 279 283 286 286 287 287 287
275 275 275 276 276 276 277 278 278 279 280 284 285 285 286 286 287 285 284 283 282 282 282 283 283 283 283 283 283 283 283 283 285 287 287 285 282 281 281 281 282 283 283 286 287 287 286 286 285 285 284 285 286 284 282 281 281 281 281 278 278 278 278 277 277 276 275 279 279 278 276 276 278 277 277 278 278 277 278 279 284 285 286 286 286
270 271 271 272 274 274 275 276 277 277 279 282 283 284 285 286 285 283 283 282 282 281 281 282 282 283 283 283 283 283 283 283 286 288 288 288 285 282 281 281 281 281 282 283 287 288 288 288 289 289 289 289 289 291 288 287 283 282 280 278 277 278 277 275 275 274 274 278 278 279 277 275 277 277 276 276 277 277 277 277 279 284 285 285 285
267 268 270 271 272 274 274 274 276 276 277 280 283 284 284 285 284 282 282 281 280 281 281 281 282 282 283 284 284 283 283 283 287 288 288 287 285 284 283 281 280 280 281 282 283 284 287 288 288 288 289 289 289 289 290 289 287 285 280 278 278 278 276 277 275 275 275 276 277 279 276 274 277 276 275 275 276 276 276 277 277 279 283 283 284
266 267 268 268 268 269 271 272 274 274 275 278 282 283 284 284 283 281 281 280 280 280 280 280 281 281 282 283 284 285 284 285 288 288 289 287 284 284 283 282 281 280 281 281 281 281 282 283 283 284 285 286 286 285 285 288 287 286 281 280 280 278 276 277 277 275 273 274 277 279 275 274 274 275 274 273 270 274 276 276 277 277 277 278 279
Wind_Speed
7 7 7 7 7 8 8 7 7 7 8 7 6 7 7 7 7 6 5 4 5 4 4 4 4 4 5 4 2 4 3 3 2 0 1 2 4 3 5 6 6 6 7 3 7 7 6 4 3 4 4 4 3 2 1 2 3 7 4 4 5 4 5 4 5 4 4 5 5 6 6 6 6 6 6 7 7 8 9 9 9 9 10 11 11
7 7 8 7 7 7 8 7 8 7 8 8 7 7 7 6 6 5 5 5 5 5 5 4 4 4 5 4 4 4 3 4 2 1 0 1 5 3 6 6 6 7 6 6 5 7 7 5 3 4 3 4 4 2 1 2 4 7 6 3 3 4 4 4 3 4 4 5 5 6 6 6 7 7 7 7 7 8 8 9 9 9 10 10 10
7 8 7 7 7 8 8 7 7 7 8 7 7 7 7 7 7 7 7 7 7 6 6 5 5 4 4 4 3 4 3 3 1 0 1 0 3 3 3 7 7 8 9 6 4 7 6 7 6 6 6 6 5 4 3 1 3 3 9 4 3 3 3 3 3 3 4 5 5 5 6 6 6 7 7 7 7 8 8 8 9 9 9 9 10
7 7 8 7 7 7 7 7 7 7 8 7 7 7 7 6 6 6 6 5 6 6 5 7 5 5 4 4 2 4 3 3 3 0 0 1 3 4 3 4 8 9 9 9 9 6 5 5 2 5 6 7 6 5 5 2 2 2 1 2 1 3 3 2 3 3 5 5 5 5 5 6 6 6 6 7 7 8 8 9 9 9 9 9 9
7 8 7 7 7 7 7 7 7 7 7 7 7 6 6 6 6 5 6 5 6 5 4 5 6 5 6 4 3 3 3 4 3 1 1 0 1 3 4 4 4 7 9 10 10 8 8 7 7 3 2 4 7 6 4 4 2 1 3 3 3 3 3 2 2 4 4 5 5 4 5 5 5 5 6 6 7 7 8 8 7 7 8 8 9
6 7 7 7 7 7 7 7 7 6 7 7 8 7 7 7 6 7 6 7 6 5 5 5 5 5 4 4 4 4 4 3 4 3 3 2 1 2 5 4 4 4 4 8 10 9 8 7 6 7 5 0 3 5 6 5 5 4 3 3 3 2 2 2 3 4 4 4 4 5 4 4 4 5 5 5 6 6 7 7 7 7 8 8 8
6 7 7 7 7 7 7 7 7 6 7 7 8 7 7 7 7 7 4 5 5 5 4 5 5 6 4 5 4 4 4 3 3 4 3 3 1 2 3 4 5 5 4 4 6 8 9 9 8 7 7 5 2 3 5 5 5 5 6 4 4 3 3 3 2 3 3 3 3 3 4 4 4 4 4 5 4 5 5 6 7 7 7 8 8
5 6 7 7 7 7 7 7 7 7 7 6 7 7 6 6 6 7 7 5 6 5 5 5 5 5 4 5 4 5 4 4 4 4 3 3 1 2 1 3 5 5 5 5 4 4 7 7 8 8 7 6 3 3 3 4 5 6 5 6 5 6 5 5 4 3 3 3 4 4 4 4 3 3 3 3 4 4 5 5 5 6 7 8 8
5 6 7 6 6 6 7 7 6 7 7 7 7 7 7 7 6 6 7 6 6 5 4 5 5 4 4 4 4 4 4 5 4 4 3 4 3 3 1 3 3 5 5 5 4 3 4 6 6 7 7 6 3 3 2 1 6 7 6 7 7 6 5 5 4 4 3 3 3 3 3 3 3 3 3 3 3 4 4 5 5 6 6 7 7
5 4 5 5 4 5 5 7 7 7 7 7 7 6 6 7 7 6 7 6 7 7 6 5 5 4 4 4 3 3 3 4 4 3 4 4 3 4 3 3 3 1 3 5 5 4 3 3 5 5 5 5 4 3 4 4 7 5 8 8 7 8 8 6 5 5 5 4 3 3 3 3 3 3 3 3 3 3 4 4 5 5 6 7 6
4 4 4 4 5 4 5 5 6 7 7 6 6 6 6 6 8 7 5 7 8 7 7 6 5 4 4 3 3 2 1 2 3 4 4 4 4 4 3 4 4 2 3 4 6 5 4 3 2 2 2 3 3 3 4 7 6 10 8 9 10 9 8 8 7 7 6 4 4 3 3 3 3 3 3 3 3 3 4 4 5 6 6 5 6
3 3 4 3 4 3 4 4 6 7 7 7 8 7 9 8 8 9 7 4 5 7 6 7 5 4 3 2 1 1 0 1 2 3 4 4 4 4 4 4 5 4 4 3 5 5 5 4 4 4 2 1 1 1 4 4 7 7 5 11 10 10 10 7 7 7 5 5 4 5 4 5 4 3 3 3 3 4 4 5 5 5 5 6 6
6 6 6 6 5 4 4 4 5 6 7 8 8 8 7 8 7 5 8 6 4 6 6 8 8 3 2 2 0 0 1 1 3 4 4 4 4 4 3 3 4 4 4 3 4 4 4 5 5 5 4 3 2 1 0 2 5 5 6 6 12 11 8 8 8 6 5 5 6 5 5 5 5 4 4 3 4 4 5 5 5 5 6 6 6
6 6 6 6 6 6 6 7 7 7 7 6 6 6 6 6 6 5 4 8 6 7 8 10 2 7 5 2 1 2 3 4 4 4 4 4 4 4 4 4 4 4 3 3 4 4 4 4 4 5 4 4 4 3 2 1 2 6 4 7 10 13 12 10 8 7 6 6 6 5 5 5 4 5 5 4 4 5 5 5 5 5 6 6 6
4 4 5 5 6 6 7 7 8 8 7 7 7 8 8 9 8 9 6 3 3 4 9 10 6 5 4 4 2 1 2 2 4 5 6 5 4 5 5 5 6 5 5 4 4 4 4 4 4 4 5 5 4 4 3 2 2 3 5 6 8 15 13 13 10 9 7 7 7 7 5 5 4 4 4 4 4 5 5 5 5 6 6 5 5
4 4 4 5 6 6 5 5 7 6 8 8 8 9 8 8 8 8 8 7 6 8 9 8 6 10 3 6 4 3 3 7 7 4 6 6 6 6 4 5 6 5 5 6 5 5 5 4 4 4 4 4 5 4 5 3 2 4 4 6 9 4 15 12 12 10 8 8 7 7 6 5 4 3 3 4 4 4 4 5 5 5 5 4 4
5 5 5 5 5 5 5 5 6 6 6 7 7 8 8 9 10 9 11 12 10 6 8 10 9 10 9 4 2 2 7 2 4 2 5 5 6 6 5 6 6 7 6 6 6 6 6 4 4 4 4 4 4 4 4 3 3 1 2 5 6 10 1 13 10 9 8 8 8 6 6 5 3 3 3 3 4 3 4 5 4 4 3 3 2
4 5 5 5 5 6 5 5 5 6 6 7 6 5 7 8 9 10 10 9 10 7 8 8 9 8 7 6 9 8 6 4 5 4 0 4 5 6 6 6 5 6 6 5 6 6 6 6 4 4 4 4 4 4 4 5 3 3 3 3 6 8 8 5 11 9 8 8 7 6 6 5 3 3 2 3 3 3 3 4 3 2 2 2 1
4 4 4 5 5 5 6 5 5 5 6 6 6 7 7 8 7 9 10 9 6 9 11 9 5 7 8 6 1 0 4 8 6 4 1 3 4 7 7 7 7 7 8 7 6 7 6 6 6 5 5 4 4 4 5 5 5 5 6 6 7 7 7 6 5 8 7 8 7 6 6 5 3 3 2 2 2 2 2 3 2 2 2 1 2
4 3 4 4 4 5 5 5 6 5 6 7 7 7 6 6 8 9 8 8 9 10 9 8 13 11 11 9 6 3 2 1 2 10 6 5 6 3 4 6 6 8 9 9 8 9 8 7 8 6 7 6 5 5 6 5 4 5 6 10 9 10 9 8 6 5 3 3 7 7 6 6 5 3 3 2 1 1 2 2 2 1 1 2 2
3 3 4 4 4 4 4 5 5 6 6 6 6 6 7 7 7 8 9 9 8 8 7 9 10 10 8 9 5 6 4 4 2 2 4 5 4 7 6 2 4 7 8 8 8 8 9 9 8 8 8 7 7 6 6 6 5 5 6 12 12 11 11 10 9 7 4 3 4 5 6 6 6 4 3 3 2 1 1 2 1 1 1 2 3
3 3 3 3 4 3 4 5 5 6 6 6 5 6 6 6 7 8 9 10 8 9 11 7 9 8 10 9 10 5 4 4 5 4 3 4 8 8 8 11 10 10 8 10 10 9 8 8 9 8 8 8 7 8 7 7 6 6 7 14 13 12 12 11 11 9 8 6 4 4 4 5 5 4 4 4 4 4 4 3 2 1 2 2 2
4 4 4 4 4 3 4 5 5 4 5 5 6 6 7 7 7 6 8 11 9 10 9 8 7 9 10 9 11 12 14 13 11 8 8 5 2 4 5 10 13 7 9 12 9 9 8 8 9 9 9 8 7 7 7 8 9 9 12 15 14 13 12 12 12 11 10 9 9 7 5 3 2 3 4 4 4 4 2 3 2 2 3 3 3
2 3 4 4 4 4 4 4 5 5 6 6 6 6 6 5 6 6 6 8 9 10 10 11 10 7 10 10 10 10 10 10 9 10 10 8 9 7 8 4 4 5 2 7 6 8 9 10 10 9 9 8 8 8 7 8 9 15 13 15 16 16 15 15 14 13 12 11 9 8 7 6 5 3 3 4 3 4 5 4 4 4 4 4 3
5 1 3 4 4 4 4 5 6 6 6 5 5 6 6 6 6 6 6 7 8 10 10 11 10 12 9 8 9 10 11 9 6 7 7 7 7 7 6 5 8 5 4 6 7 8 8 9 8 9 9 9 8 8 8 8 8 14 15 12 19 17 18 17 16 16 14 12 10 9 8 7 7 6 6 5 5 5 5 4 5 5 5 5 4
5 5 4 3 4 5 5 5 5 5 5 6 6 5 5 6 6 7 7 7 6 9 11 11 11 11 8 8 9 9 10 8 10 7 8 7 8 9 6 5 3 5 1 5 3 6 5 8 8 8 9 9 9 9 9 9 8 15 18 11 15 19 18 17 17 16 16 13 12 10 8 7 7 7 6 7 7 6 6 5 6 6 5 4 4
6 6 6 5 3 4 4 5 5 5 5 5 6 5 5 6 5 6 7 6 7 8 8 9 12 12 9 10 8 8 9 8 9 11 8 9 9 9 9 8 3 2 4 3 3 10 6 6 8 9 10 10 9 10 10 9 9 15 17 11 9 17 18 18 18 18 17 16 14 12 11 9 7 7 7 7 7 6 6 7 7 7 6 6 5
7 7 7 5 6 4 4 4 4 5 5 5 5 5 5 6 6 6 7 5 7 7 8 8 11 11 12 11 9 10 6 8 9 10 10 9 8 7 9 10 11 7 2 5 5 8 5 6 4 9 10 11 10 10 11 12 9 16 17 9 9 10 18 19 19 17 17 16 15 13 12 11 10 9 9 9 8 7 6 5 5 5 4 4 5
8 7 8 7 7 6 5 5 4 5 5 5 5 5 5 6 6 6 7 6 7 7 7 8 8 8 10 12 12 11 8 6 7 8 8 8 8 8 9 12 10 11 8 8 9 9 8 10 8 11 12 10 10 9 11 11 11 15 11 10 10 9 16 21 19 17 16 16 15 14 13 13 12 12 11 11 10 10 9 9 8 8 8 8 8
7 7 7 8 7 8 7 6 6 5 5 5 5 5 5 6 6 7 7 6 7 7 7 7 8 7 9 10 10 11 9 8 8 7 7 9 8 9 9 9 10 14 10 11 11 9 7 8 8 7 10 11 10 10 10 11 13 17 12 11 11 11 18 21 20 18 17 17 15 14 14 14 13 13 13 13 12 12 11 11 10 10 9 9 9
7 7 7 7 7 7 5 6 6 6 5 5 5 5 5 6 6 7 6 6 7 8 7 7 8 7 10 11 11 11 9 9 10 9 8 7 8 7 8 8 9 12 11 9 10 7 9 10 11 7 11 13 12 11 9 9 12 17 12 11 11 13 19 17 22 20 19 19 17 16 16 15 15 15 14 14 14 13 13 12 12 11 11 10 10
3 3 4 5 5 6 7 8 7 6 5 5 5 6 6 6 7 7 7 6 7 8 8 7 7 8 10 12 12 11 9 7 11 10 9 8 8 8 8 8 8 8 8 9 13 11 9 11 11 11 12 13 12 12 11 8 9 18 11 11 11 13 13 10 20 21 20 19 18 18 17 17 17 17 16 15 15 15 14 13 13 12 12 11 10
10 10 8 6 5 5 6 6 6 7 7 7 5 5 5 6 7 7 7 7 8 8 7 9 8 8 10 12 12 11 8 10 11 10 10 10 8 8 8 8 9 8 8 8 10 8 2 2 6 9 10 11 9 12 12 10 9 11 11 10 11 11 10 9 10 17 20 19 18 18 18 18 17 17 17 16 16 16 15 14 13 13 12 10 10
6 7 9 10 11 10 6 5 5 5 5 6 7 6 7 6 7 6 6 7 8 9 7 10 9 9 10 12 12 10 8 11 13 13 11 11 10 10 10 9 10 10 8 8 8 8 9 1 4 3 7 11 12 11 15 14 13 10 12 11 10 10 9 8 8 10 19 17 18 19 19 19 19 18 18 17 17 16 15 14 13 12 11 10 9
5 5 6 6 6 7 9 11 10 7 5 5 5 5 7 8 9 8 7 7 8 9 9 11 10 9 11 12 12 9 7 11 13 12 10 11 10 12 14 10 12 12 9 9 9 9 9 7 5 8 9 10 12 13 13 12 11 12 12 11 11 9 8 9 9 7 16 19 19 19 20 20 19 18 17 17 17 16 16 15 14 13 12 10 10
5 5 5 7 6 6 6 6 6 7 9 8 7 5 6 7 8 9 8 8 9 9 10 10 10 10 12 12 12 9 9 13 14 12 10 10 11 12 13 12 12 13 10 8 10 12 8 9 7 9 9 11 9 5 9 7 10 11 11 9 5 8 8 8 9 8 12 20 18 18 18 18 18 17 17 17 17 17 16 15 14 12 12 11 10
4 5 6 5 6 6 8 9 9 9 8 8 8 8 7 6 7 8 8 8 9 10 11 11 11 11 12 13 12 9 9 13 13 12 10 11 11 12 13 12 12 11 8 9 11 10 9 10 8 6 7 8 7 7 11 12 9 7 6 9 10 10 8 7 6 6 9 19 18 18 17 18 19 20 19 19 18 17 16 15 14 13 12 12 11
6 4 5 5 5 7 7 7 7 9 9 9 9 8 8 8 8 8 9 9 9 10 10 10 10 10 12 13 12 10 10 13 13 11 11 13 12 13 14 13 11 10 11 11 11 12 13 12 9 8 7 9 6 6 11 12 12 11 8 7 5 6 8 8 8 7 7 7 7 9 14 16 19 20 19 18 18 17 16 15 14 13 13 12 12
8 8 7 7 7 6 7 7 7 8 9 8 9 9 9 9 9 9 9 10 10 10 10 11 10 11 12 12 12 11 12 13 14 12 11 12 12 14 14 13 11 10 11 12 12 13 13 13 8 10 11 10 11 12 10 11 11 12 15 12 10 8 8 10 9 7 6 7 7 11 10 9 10 10 15 18 17 18 17 16 15 15 13 13 12
11 10 10 9 9 8 8 8 9 8 8 8 8 8 9 9 10 9 9 9 10 10 10 11 11 11 12 12 11 11 12 13 13 13 11 12 11 12 12 11 10 11 12 11 11 12 13 13 13 10 9 11 9 2 4 10 10 7 8 10 14 13 12 11 12 11 9 9 9 8 10 11 11 13 16 16 18 18 18 15 16 15 15 14 13
9 10 10 10 12 12 11 10 10 8 8 9 8 8 9 10 9 10 11 11 10 10 11 11 11 11 11 11 12 11 12 15 19 17 15 13 10 11 11 9 10 12 11 11 11 11 12 12 13 8 8 10 12 12 12 14 18 19 13 12 12 12 10 9 8 7 8 10 8 7 8 9 9 8 7 8 10 15 14 16 11 16 15 15 14
9 9 10 10 11 12 13 12 11 10 10 8 11 17 15 10 9 9 9 10 10 11 11 12 11 11 11 11 12 17 18 19 19 20 21 21 20 16 12 9 10 11 12 12 12 12 12 13 14 12 10 13 14 16 17 17 14 9 13 15 13 9 8 9 6 6 7 9 9 9 9 8 8 7 7 8 7 10 7 9 8 8 11 15 16
11 10 10 11 11 11 12 12 13 12 11 11 17 16 17 21 15 10 10 10 10 10 10 11 13 13 11 11 11 13 15 16 16 20 21 22 22 23 23 20 15 13 12 14 14 13 13 13 12 12 13 15 15 13 15 13 13 16 16 15 13 11 13 14 14 6 9 12 10 9 9 8 9 10 9 9 8 8 8 8 13 15 16 17 17
12 10 12 12 12 12 12 12 13 13 13 15 20 19 21 22 19 13 11 10 10 10 10 11 11 11 12 11 11 10 10 12 12 12 16 20 22 23 23 23 23 24 22 17 15 13 14 14 14 15 14 16 15 12 11 11 13 14 13 14 16 16 15 14 13 13 11 17 13 11 11 8 10 10 9 10 9 9 9 12 16 16 18 18 19
12 13 14 14 14 13 13 14 15 15 15 14 21 23 23 25 24 20 11 11 12 11 11 12 12 12 11 11 11 10 10 16 14 12 12 13 17 22 23 23 24 26 26 27 24 18 13 15 15 16 17 16 14 12 13 13 10 14 13 13 14 14 14 16 16 12 9 18 13 12 11 11 13 13 12 11 10 9 9 15 19 18 19 20 20
14 14 14 15 14 15 15 15 15 16 16 15 23 24 23 25 25 22 14 14 13 13 13 13 12 12 12 12 11 12 11 11 10 11 11 12 11 12 13 14 15 19 24 27 27 27 22 16 16 18 17 15 14 11 12 13 15 16 14 15 14 14 15 17 14 11 10 16 20 14 9 11 11 10 12 9 9 9 9 13 20 20 20 21 20
14 15 15 14 16 13 16 15 16 17 17 22 25 26 26 27 27 24 16 14 14 14 14 14 14 13 13 13 13 13 13 11 10 12 11 11 11 11 13 14 14 14 15 16 18 18 17 16 16 18 16 14 13 10 11 15 19 16 16 17 17 17 16 9 3 0 5 11 11 10 14 10 11 11 11 9 9 9 8 14 20 20 21 20 20
11 15 13 17 17 17 18 17 19 18 18 24 28 28 29 28 29 18 15 15 15 14 15 14 14 13 13 13 13 13 14 13 13 19 17 12 10 12 14 13 13 12 13 15 20 19 17 16 16 16 14 13 13 11 11 14 14 12 10 4 3 6 7 8 12 5 7 10 13 12 6 8 11 13 10 8 9 9 9 8 17 21 20 19 18
15 16 15 19 16 19 18 18 17 19 19 23 30 32 31 33 26 17 15 13 13 14 16 15 15 14 13 13 13 13 13 14 14 17 19 19 13 14 14 14 12 11 13 13 18 22 22 23 24 24 22 15 19 13 17 21 16 13 9 9 13 12 12 12 10 6 9 9 10 10 4 6 10 10 8 8 10 9 9 9 8 15 18 17 16
18 15 16 13 16 16 18 21 18 20 20 25 34 34 34 34 29 19 15 15 15 15 15 15 14 13 15 21 18 15 14 15 15 19 19 17 14 14 14 14 14 14 14 12 8 10 18 21 24 24 24 21 20 18 17 20 22 18 16 18 15 11 13 14 14 12 6 8 12 10 7 7 9 8 7 4 4 2 6 6 7 8 14 13 15
16 13 19 13 18 15 19 18 29 28 22 24 32 34 36 34 28 18 17 15 16 15 14 14 14 13 14 16 23 20 17 16 20 20 21 17 13 13 14 14 14 15 16 12 9 9 10 11 13 14 15 17 15 14 13 20 22 20 18 16 11 14 16 15 10 6 5 10 11 11 11 6 11 7 9 7 4 3 4 6 7 6 6 5 6
Wind_Direction
160 164 165 174 167 167 170 175 169 165 169 193 166 164 175 167 173 185 153 143 148 166 162 161 156 140 129 143 133 106 97 99 88 11 349 102 110 62 32 8 354 354 347 253 204 187 178 179 198 192 183 167 127 88 343 325 112 109 138 119 105 94 84 79 77 78 91 96 89 82 80 82 79 78 77 77 70 66 65 63 62 66 62 60 57
157 162 170 183 173 169 168 175 173 165 166 185 169 156 171 168 168 161 156 161 167 181 152 160 134 128 133 144 141 150 143 120 158 205 222 90 116 92 44 17 8 17 9 331 250 214 195 138 208 202 200 166 158 141 8 351 301 118 109 118 108 106 89 74 80 91 96 98 97 94 89 86 86 79 75 72 72 72 68 65 59 57 58 58 57
158 164 171 179 177 171 174 170 168 168 167 171 163 162 169 169 166 165 171 166 176 169 150 141 132 111 127 136 158 117 120 133 120 96 101 92 121 116 63 35 25 25 29 41 3 223 219 158 201 218 190 184 178 174 145 233 292 171 138 125 129 114 96 75 72 87 92 107 114 103 95 93 88 83 76 71 69 68 67 63 62 59 59 58 56
160 167 172 178 178 174 170 164 170 163 165 161 162 168 170 169 165 165 165 159 154 165 149 143 145 146 135 125 120 123 131 126 118 129 28 87 112 132 108 68 38 35 25 37 52 45 124 83 338 236 221 196 189 174 168 172 196 278 241 151 148 113 104 135 103 101 112 112 104 101 98 93 82 77 75 75 71 67 61 57 54 55 53 52 51
169 169 170 178 177 170 169 169 167 162 164 162 159 167 161 155 164 152 154 137 138 162 147 144 138 142 143 160 143 121 135 131 141 121 74 255 183 160 135 109 75 41 34 26 32 66 73 64 44 27 215 218 180 177 163 169 185 247 228 174 170 163 143 127 147 129 125 120 116 106 104 95 88 83 77 72 69 64 58 51 50 49 50 50 46
162 169 169 174 179 173 170 171 170 163 161 158 163 169 158 148 154 139 151 143 151 160 146 137 140 142 140 156 139 153 141 132 154 162 169 218 230 139 146 138 116 89 59 36 30 45 70 68 65 48 36 72 165 164 165 168 196 191 205 177 169 187 189 145 157 151 130 122 112 121 113 98 94 82 74 70 65 57 54 51 51 53 50 47 46
166 166 176 173 176 174 176 178 166 159 162 168 161 167 153 156 153 148 153 148 153 162 162 157 147 152 154 165 154 145 136 151 139 143 171 214 174 155 151 163 136 132 104 81 42 34 50 61 62 61 56 55 112 159 162 184 191 194 176 168 179 192 195 191 177 147 143 131 138 121 114 108 94 87 77 74 68 68 65 59 54 51 49 48 44
174 169 178 183 179 177 178 167 166 159 160 161 158 168 160 155 167 152 158 177 156 172 169 158 149 153 155 167 157 140 155 144 145 157 208 165 173 172 162 140 142 152 145 109 88 45 53 58 61 59 57 53 78 148 173 187 201 199 188 168 179 188 186 188 175 156 156 159 156 141 130 123 108 98 99 92 85 76 69 68 60 53 50 47 44
184 178 177 184 180 176 178 172 163 160 158 166 169 171 161 162 172 173 165 168 164 165 171 153 151 153 152 143 148 155 162 162 166 182 182 170 201 179 153 95 90 121 116 130 122 93 60 68 66 57 39 36 45 150 179 249 212 209 188 173 188 186 178 189 164 165 177 186 164 157 129 131 134 134 117 107 92 80 71 64 62 58 52 49 40
191 177 176 187 185 178 179 170 161 159 159 165 179 170 165 160 171 183 171 161 164 166 172 155 143 138 133 128 143 156 182 157 173 171 164 209 190 179 165 132 127 188 123 142 138 131 108 92 92 75 44 29 30 31 12 347 351 258 194 184 192 177 173 175 178 186 189 178 179 170 180 165 152 141 128 108 92 84 79 75 67 60 58 51 44
193 175 172 188 194 188 176 173 161 161 157 161 174 175 169 171 170 184 179 177 168 173 165 147 137 128 131 150 153 190 178 140 151 156 185 209 185 192 144 152 164 189 134 134 146 145 152 174 150 113 72 28 30 25 8 16 343 343 207 197 190 183 165 179 191 185 192 193 184 205 186 192 156 146 133 117 103 93 88 78 67 61 57 53 46
184 173 177 182 194 199 181 170 168 157 162 167 181 182 181 177 184 176 178 173 162 159 140 128 103 106 123 113 126 124 50 140 161 198 216 202 195 180 162 175 167 171 159 161 145 158 166 185 184 161 149 115 17 1 19 21 1 343 316 204 196 184 185 188 183 187 188 190 206 190 193 179 165 151 139 126 109 94 84 70 63 61 56 47 44
186 181 192 189 189 187 170 166 167 171 178 188 186 190 187 183 174 171 168 167 176 158 146 128 122 78 64 107 91 142 214 169 232 238 226 206 181 167 178 158 174 167 180 161 151 162 172 181 169 160 163 168 212 233 343 38 8 338 345 262 198 199 192 192 196 187 193 204 202 199 185 187 178 157 151 137 115 99 87 76 64 52 53 48 39
188 190 190 188 190 184 179 177 177 185 190 186 189 190 181 178 159 168 193 171 183 165 160 121 174 173 150 190 299 264 226 205 235 240 221 215 182 171 196 185 184 182 188 158 172 176 186 193 183 163 168 175 193 209 229 47 356 351 327 338 214 194 186 200 190 195 196 201 204 199 185 184 177 163 151 130 108 96 91 83 69 56 55 48 43
189 192 191 197 198 193 196 182 185 181 182 193 190 192 188 184 178 176 180 187 155 177 171 180 160 135 130 97 237 190 297 270 254 230 212 205 190 188 195 187 187 180 183 168 181 193 198 199 192 171 171 179 189 187 141 123 88 7 10 351 333 204 189 192 188 194 196 197 204 191 188 187 175 162 149 122 103 93 87 83 74 60 60 53 42
182 193 199 204 205 207 202 190 196 189 188 192 194 199 188 189 187 184 163 171 185 199 194 186 149 141 177 199 206 147 302 253 210 236 193 196 191 204 188 187 183 185 174 180 188 191 205 197 192 181 182 182 182 171 149 143 119 66 39 14 5 302 184 188 182 194 191 191 192 191 186 184 164 150 126 109 103 89 91 88 78 70 63 57 44
180 190 197 209 213 214 210 202 193 198 193 199 203 205 200 198 193 185 185 186 195 185 206 201 201 195 151 132 141 205 215 213 135 263 183 194 209 193 198 186 187 188 185 194 189 188 189 189 188 185 191 187 190 172 153 160 141 120 64 46 39 28 70 178 182 189 197 191 186 186 188 179 155 127 108 98 88 83 85 85 83 75 68 53 39
185 189 197 202 214 218 219 214 203 201 200 205 206 203 208 204 201 197 201 209 192 174 199 226 213 219 215 202 157 175 181 187 126 240 14 213 191 203 199 199 186 189 197 199 191 190 183 182 184 195 197 196 193 169 163 170 172 158 135 122 83 71 53 165 177 191 190 195 190 187 187 182 148 119 102 80 81 72 80 80 80 80 65 40 348
215 199 202 209 212 217 219 222 217 205 205 206 212 211 208 209 203 206 208 204 177 195 199 199 219 254 245 246 185 144 144 130 203 94 267 286 218 204 215 202 190 185 198 204 196 183 186 175 187 190 198 197 190 173 169 186 182 177 160 160 140 121 107 84 143 177 182 194 192 193 191 191 156 130 104 74 73 76 72 79 78 69 53 9 336
211 225 218 212 219 229 226 223 224 219 202 209 215 219 216 213 207 211 213 209 206 204 200 189 190 213 220 233 233 191 182 189 167 171 165 166 240 253 239 208 200 206 196 199 196 187 179 184 184 186 191 197 191 183 182 181 175 169 167 174 167 156 146 141 128 120 131 182 189 190 199 189 179 151 130 101 51 61 88 90 80 47 5 355 342
205 218 232 228 222 229 236 236 232 231 215 214 220 221 221 210 209 210 212 218 214 216 203 204 203 208 197 231 226 218 227 229 208 159 147 155 231 191 210 213 222 228 214 201 201 190 185 184 183 182 188 193 190 186 180 170 172 166 169 173 169 166 165 164 160 154 142 161 179 191 192 182 186 173 160 167 168 169 140 98 75 20 342 319 322
211 224 232 235 232 228 234 240 240 241 237 227 224 226 231 229 216 213 214 219 220 217 221 209 206 209 207 199 208 199 228 253 252 225 251 197 180 197 191 177 198 228 198 206 200 193 186 181 181 184 188 191 190 187 179 177 175 172 177 172 172 170 166 165 171 176 177 179 185 191 195 184 182 177 181 194 185 188 178 155 162 194 262 288 296
191 209 213 231 236 227 227 239 246 247 243 245 239 231 229 230 227 221 218 218 220 227 231 230 206 210 211 202 210 200 201 203 206 207 195 193 144 202 192 198 200 206 216 206 192 193 186 180 184 188 188 191 192 187 183 184 181 179 177 174 169 163 159 166 171 178 185 189 194 196 203 197 193 196 199 196 201 179 202 197 160 192 241 253 252
186 189 218 227 221 231 233 238 247 249 247 241 246 243 240 239 237 227 225 225 227 227 233 233 229 218 216 212 216 214 223 221 214 207 200 209 194 196 188 186 270 242 219 191 198 188 192 189 192 185 185 187 193 189 183 183 190 181 177 178 170 167 172 173 174 178 186 192 191 194 199 197 193 200 220 226 210 203 195 197 199 206 225 248 257
331 284 252 221 213 222 233 235 242 242 244 248 250 248 244 240 238 239 229 222 222 227 231 234 231 231 224 224 220 216 222 222 214 213 223 213 206 202 217 180 191 198 213 164 197 203 193 198 186 188 183 188 187 189 189 186 187 183 177 181 176 176 178 178 174 180 186 190 191 194 199 202 198 197 206 214 218 216 211 204 211 218 223 222 235
338 335 300 242 214 216 217 229 233 240 240 240 242 246 245 241 241 243 242 236 228 229 234 237 240 242 237 231 228 223 225 211 217 207 209 192 215 207 191 223 198 188 183 179 194 155 239 211 191 183 187 186 190 189 191 189 185 184 177 178 183 184 183 173 172 178 183 185 189 193 201 210 207 205 218 217 214 217 216 215 213 214 228 236 242
338 327 336 340 274 233 227 232 244 246 247 250 246 242 243 245 244 246 249 243 239 233 236 234 240 244 244 241 238 233 226 212 211 222 206 208 207 196 182 194 230 153 189 212 210 208 188 203 182 189 191 189 190 192 189 191 187 181 177 178 189 190 183 180 180 181 182 185 187 191 196 201 209 215 218 225 230 227 223 217 217 225 223 224 236
338 341 335 341 329 293 266 253 253 255 254 249 250 246 244 242 247 250 253 250 250 244 240 234 240 240 244 248 249 245 232 222 219 219 218 214 205 198 193 200 194 228 212 214 216 235 196 178 209 204 190 195 196 190 189 185 183 184 177 181 186 192 190 189 188 185 184 185 186 188 191 195 199 209 219 220 225 229 238 246 242 240 244 245 244
341 342 337 338 335 321 300 283 272 261 261 258 253 251 245 240 238 242 248 249 249 250 246 241 243 238 243 243 244 250 241 240 238 229 222 216 211 203 195 202 198 212 204 214 222 208 228 195 183 213 194 194 191 189 186 194 184 181 183 184 187 191 196 194 193 189 187 187 188 190 192 194 199 202 210 215 215 216 217 218 221 223 226 228 233
342 336 338 334 329 323 313 300 287 280 269 267 264 259 255 252 243 240 237 236 247 254 250 247 248 241 244 245 244 248 244 242 244 238 231 224 217 209 207 206 193 213 207 203 232 197 209 208 201 185 193 194 189 191 192 195 182 183 185 187 187 193 197 196 196 192 190 191 191 194 196 199 201 204 209 210 211 213 214 215 216 223 225 229 232
338 336 334 331 327 319 310 297 292 284 276 271 266 265 255 257 254 252 250 241 242 246 244 242 249 241 246 248 245 247 241 240 246 242 241 236 230 222 222 206 205 215 208 197 237 230 178 193 211 197 184 192 188 188 191 192 183 184 185 190 191 189 193 198 197 194 192 191 190 194 199 200 203 207 210 211 211 211 213 212 217 221 225 229 232
312 314 314 319 319 322 321 318 310 299 287 277 270 260 260 254 254 255 253 244 249 247 250 243 246 241 247 250 247 245 242 237 243 240 240 238 231 231 228 222 219 213 199 200 225 235 195 196 195 194 183 182 182 183 192 185 183 184 185 191 192 186 191 198 197 193 192 191 190 193 197 200 203 206 210 212 214 213 212 215 217 220 222 225 229
342 344 344 337 325 315 311 307 305 308 309 301 282 266 259 258 254 247 252 246 249 253 248 252 247 245 246 248 248 246 241 240 242 242 239 237 235 234 232 228 232 218 195 207 224 239 276 243 175 187 183 165 183 188 183 182 177 188 186 191 188 191 190 190 191 192 193 193 192 194 197 199 201 204 207 211 214 215 215 216 218 219 221 223 226
330 331 334 334 334 331 321 302 296 295 294 293 293 290 276 266 260 249 251 245 249 253 245 250 247 245 247 249 249 244 235 242 244 242 238 238 233 234 234 225 232 233 206 202 224 224 221 205 150 130 167 182 182 187 184 181 190 182 187 190 195 192 188 184 187 197 197 198 196 195 198 199 202 203 206 209 213 214 217 217 218 219 220 222 224
318 321 316 313 309 315 322 325 325 319 301 288 279 274 273 269 269 266 253 247 247 251 248 248 248 244 249 248 249 242 235 242 245 244 240 239 235 235 236 228 231 232 220 212 219 231 218 219 184 169 182 184 188 189 194 195 187 184 183 188 190 190 188 187 190 192 203 203 200 197 198 201 201 203 206 208 211 214 214 217 217 217 220 223 225
304 300 312 311 311 311 311 304 303 306 312 309 299 279 266 262 260 261 261 258 256 253 251 251 249 245 246 251 249 240 234 242 244 241 238 237 237 237 237 232 229 230 221 214 218 230 216 200 208 189 186 178 207 190 190 172 171 184 192 184 170 184 190 191 191 191 201 202 199 198 199 201 201 203 207 212 214 214 215 216 217 218 219 221 227
292 301 303 302 302 308 308 311 311 310 305 301 298 294 283 270 263 263 261 258 257 256 253 252 249 245 248 249 251 239 233 242 245 241 232 235 237 239 239 236 231 228 223 214 223 220 212 209 198 201 187 201 192 178 177 170 172 181 186 189 190 187 188 192 190 195 195 201 198 199 200 200 201 203 206 210 214 215 216 218 218 219 220 222 225
296 289 287 291 289 291 291 288 291 295 298 299 296 291 288 285 280 272 269 265 263 261 259 255 250 245 248 250 250 241 237 240 246 243 233 232 232 236 239 239 234 229 226 224 223 225 224 223 179 176 193 185 176 189 186 179 173 176 187 194 183 190 181 192 202 194 193 193 188 196 200 203 204 206 207 211 213 215 217 218 220 221 222 225 228
303 304 298 296 289 279 278 280 280 280 279 280 286 290 290 285 278 277 275 272 269 268 264 261 258 254 251 251 250 242 240 241 245 243 236 235 231 232 232 237 234 230 231 229 224 224 225 226 204 188 183 197 186 186 191 187 187 185 180 175 197 199 197 196 198 203 194 196 199 194 194 193 197 201 209 212 215 217 217 217 217 219 221 223 228
305 301 298 297 294 291 284 281 276 272 271 271 268 268 273 280 282 279 272 269 270 268 268 264 260 258 257 255 252 246 241 242 243 243 236 238 236 239 234 228 226 229 232 232 229 225 225 226 217 200 194 181 193 174 136 169 184 205 202 184 188 188 200 202 203 192 194 187 192 195 201 201 204 208 212 218 219 218 217 217 217 218 218 222 227
287 288 290 293 295 293 288 279 276 270 267 265 261 259 263 264 264 270 276 276 272 271 268 266 261 258 257 256 255 252 245 245 243 242 239 233 234 241 238 226 221 223 228 232 229 228 230 225 229 203 186 192 194 176 175 188 193 196 176 175 200 200 195 197 211 201 192 187 190 185 196 189 191 198 195 204 215 215 216 212 213 216 219 223 227
275 275 277 277 277 279 284 284 278 275 271 268 261 258 256 256 256 256 259 265 268 271 273 273 268 260 255 255 253 251 250 248 247 246 246 242 237 234 235 222 220 224 221 225 226 227 227 226 226 214 199 207 200 195 191 197 190 160 174 190 194 181 161 206 223 218 188 177 179 194 204 192 183 186 188 203 207 203 195 204 203 198 211 220 222
284 283 279 278 275 274 274 276 278 276 273 269 264 258 258 261 261 257 253 256 257 258 261 264 269 269 265 258 257 255 253 251 251 249 247 245 243 242 240 234 224 221 223 224 224 221 224 228 226 223 217 219 214 201 202 189 184 184 184 184 187 173 185 184 206 197 192 179 187 196 207 192 177 191 196 203 200 200 197 204 202 207 210 215 217
290 286 282 279 279 280 279 277 274 271 269 265 262 259 259 260 258 255 253 254 253 253 252 256 259 261 263 261 257 254 250 247 248 247 246 245 245 245 243 240 236 231 224 221 223 222 219 226 226 223 222 225 218 197 200 188 191 192 190 186 188 187 189 199 204 196 189 172 186 192 207 180 183 190 197 205 199 198 196 193 197 203 211 214 211
296 293 290 287 285 282 279 278 277 275 273 262 261 259 258 260 257 254 250 248 251 251 251 250 253 257 258 257 258 253 251 248 246 245 244 243 240 241 242 242 239 236 235 231 226 224 218 223 224 227 223 225 220 203 197 194 179 192 189 194 197 200 201 201 205 192 154 181 178 194 197 187 181 189 198 202 191 187 188 194 197 203 208 208 204
301 297 293 289 288 286 285 282 280 278 274 269 266 262 258 259 259 258 255 250 248 248 248 248 248 250 250 253 255 256 251 245 239 240 240 240 238 237 238 239 239 238 237 236 233 229 223 223 223 229 227 221 224 205 189 173 183 196 193 200 195 197 201 211 205 197 182 175 183 177 191 195 185 181 200 192 179 183 186 192 198 202 206 207 208
304 300 299 297 291 286 284 280 280 277 276 273 270 268 266 262 259 256 256 254 253 251 247 245 244 243 245 248 250 254 256 249 236 234 237 236 235 234 233 234 235 236 234 232 232 231 227 225 228 233 232 223 226 214 176 185 194 196 193 195 193 197 205 202 163 124 141 190 189 168 201 179 172 188 200 178 174 180 181 191 199 202 205 208 210
299 298 294 292 290 289 285 281 279 275 272 268 269 268 268 268 268 263 258 255 253 251 249 249 245 242 242 242 245 249 251 251 244 239 238 237 234 233 234 234 235 235 236 232 231 231 229 227 229 232 233 226 218 212 179 190 194 191 191 172 166 191 188 192 206 167 180 189 188 189 179 172 182 186 183 171 170 177 179 179 199 200 203 206 212
296 292 289 289 288 285 284 281 278 276 275 271 269 268 268 269 268 265 262 258 255 254 253 251 248 244 241 238 239 242 247 250 243 234 236 239 240 236 236 237 236 234 239 237 233 232 232 233 235 234 231 219 220 194 184 187 185 177 165 175 199 185 185 197 205 176 203 179 194 201 153 163 182 175 158 176 179 176 177 178 180 199 201 209 214
293 288 288 285 284 285 284 282 277 278 276 273 272 271 270 269 267 266 264 263 259 257 255 251 249 249 244 240 236 237 240 244 242 237 233 233 238 238 238 238 238 238 241 236 226 229 233 235 237 239 237 229 221 214 200 190 185 173 181 200 197 177 197 201 201 195 182 182 199 177 156 191 156 160 145 127 120 203 173 162 171 189 204 209 213
292 295 295 293 292 287 285 285 288 285 284 282 278 275 274 272 270 267 266 262 260 255 255 256 254 252 252 248 242 237 235 237 238 238 236 232 234 233 238 237 238 239 239 229 212 214 221 224 233 237 241 235 225 218 212 201 195 191 196 202 177 182 198 206 193 140 173 224 201 172 174 172 153 175 145 134 184 244 174 181 171 175 190 189 201